Lid_Strength_Index
2 2 3 3 3 3 3 3 3 3 3 3 3 3 4 4 4 3 3 4 4 4 4 3 3 3 3 5 5 0 -1 -2 1 4 4 4 4 4 7 5 6 7 7 6 6 6 6
3 3 3 3 3 3 3 3 3 3 3 3 3 3 4 4 4 4 4 4 4 4 4 3 3 3 4 6 1 -1 0 3 4 4 5 3 3 3 5 6 7 6 6 6 6 6 7
3 3 3 3 3 3 3 3 3 3 3 3 3 3 4 4 4 4 4 4 4 4 4 3 3 2 5 4 0 1 2 4 4 4 5 4 2 3 6 6 5 6 8 7 7 7 8
3 3 3 3 3 3 3 3 3 3 4 4 4 4 3 4 4 4 5 5 4 4 4 3 2 2 5 3 1 2 1 2 3 3 4 3 4 3 4 4 6 8 8 11 9 8 7
3 3 3 3 3 3 3 3 3 3 3 3 4 4 4 4 4 4 5 4 3 3 3 2 1 3 5 2 3 1 1 3 3 3 3 4 4 4 5 7 9 8 11 11 12 8 9
3 3 3 3 4 4 3 3 3 3 3 3 3 4 4 4 4 5 5 4 2 2 1 1 1 4 3 4 3 2 1 3 5 5 5 4 3 5 6 8 11 11 11 11 12 10 9
4 4 3 4 4 4 4 4 4 3 3 3 3 4 4 4 5 5 4 2 2 3 2 4 4 5 4 2 3 3 2 5 5 5 6 4 6 8 7 7 7 8 9 11 10 8 10
4 4 4 4 4 4 4 4 4 4 4 4 3 4 4 5 5 5 3 3 4 3 5 3 3 3 2 2 5 3 2 5 6 7 5 6 7 6 6 6 7 8 10 11 9 8 8
3 4 4 3 4 4 4 4 4 4 4 4 4 4 4 5 5 4 3 3 2 2 5 4 3 3 3 2 5 4 3 4 6 6 6 7 6 5 6 7 7 8 9 10 10 9 8
3 3 3 3 4 4 4 4 4 4 4 4 4 4 5 5 5 2 3 2 1 1 6 6 5 3 3 3 5 3 2 4 5 7 6 6 5 6 7 7 7 9 6 8 9 10 12
3 3 3 3 4 4 4 4 4 4 4 4 5 5 5 6 3 3 3 1 0 2 11 6 5 1 3 5 4 4 2 4 6 6 6 7 6 7 7 7 6 8 7 8 9 9 10
3 3 3 3 4 4 4 4 4 4 4 4 5 5 5 3 2 2 1 1 2 8 12 7 5 5 5 4 5 4 4 3 3 6 5 6 5 5 6 5 5 6 8 8 9 10 13
3 3 3 3 4 4 4 4 4 4 4 5 6 6 5 2 3 1 1 2 8 9 6 8 7 6 6 6 6 5 6 6 6 8 8 7 6 5 5 7 5 7 9 14 14 14 13
3 3 3 3 4 4 4 4 4 4 4 5 6 6 4 2 1 2 2 5 10 8 8 5 6 6 7 6 6 6 6 7 6 6 7 9 10 6 5 6 8 7 8 12 15 14 13
3 3 3 3 4 4 4 4 4 4 4 5 6 2 1 1 1 2 4 8 7 7 6 7 6 8 8 6 6 7 7 7 6 6 9 9 9 6 6 6 6 8 10 6 11 10 12
3 3 3 3 4 4 3 4 4 4 4 5 2 1 2 0 1 2 5 9 7 5 5 6 8 7 9 8 8 7 8 6 7 5 5 7 10 6 6 5 6 7 6 10 10 17 16
3 3 3 3 3 3 3 4 4 4 4 5 2 4 1 0 1 4 7 7 6 4 4 6 7 8 7 8 7 8 8 6 6 6 5 6 7 8 6 8 8 8 9 8 10 14 15
3 3 3 3 3 3 3 3 4 5 5 5 4 7 1 0 5 4 6 6 7 5 4 5 5 6 7 7 7 8 8 7 5 5 7 6 7 9 8 6 5 6 7 8 12 12 10
3 3 3 3 3 3 3 4 4 6 6 4 6 4 2 2 7 6 5 6 6 5 5 5 6 5 5 7 8 7 7 5 5 5 6 6 8 11 9 7 6 8 7 7 7 7 10
4 3 4 4 4 3 3 4 5 6 6 5 6 7 4 3 3 5 6 6 6 5 5 5 5 5 6 7 6 7 7 6 5 5 5 5 7 9 11 10 8 10 8 8 8 9 9
4 4 4 5 4 4 4 5 6 6 7 5 6 6 5 7 6 5 5 6 7 7 5 5 6 6 6 8 7 7 6 6 5 6 5 5 9 8 7 7 7 8 9 9 9 8 10
5 5 5 5 5 5 5 5 5 6 6 4 6 5 4 5 6 6 7 6 6 6 5 6 6 5 5 7 7 7 6 6 6 5 6 6 8 8 9 7 8 9 8 8 9 9 8
5 5 5 5 5 5 5 5 5 5 5 5 4 3 4 6 6 6 6 6 6 5 5 4 5 5 6 5 4 4 4 4 5 6 6 7 7 9 10 9 9 11 9 8 8 8 8
4 5 5 5 5 5 5 4 3 4 5 3 4 5 6 8 6 6 6 6 6 5 5 5 4 5 4 2 3 3 4 4 5 5 4 6 8 8 10 9 14 8 7 7 8 7 7
4 4 4 4 4 4 4 4 3 3 4 2 2 5 4 6 5 6 6 6 5 5 5 5 4 3 2 3 6 8 7 7 6 6 6 5 7 10 12 11 9 8 7 8 9 8 6
4 4 4 4 4 5 4 4 3 3 3 2 2 3 5 5 5 4 6 5 6 6 5 5 5 2 3 5 6 10 9 9 9 8 6 7 6 9 10 13 14 9 7 5 6 11 5
4 4 4 4 4 4 5 4 4 3 3 3 2 2 3 5 4 4 5 6 4 5 5 5 5 5 3 6 8 9 9 8 10 10 10 9 9 10 10 12 10 6 6 5 12 10 6
4 4 4 4 4 5 4 4 4 3 3 3 2 0 2 4 3 3 3 4 4 4 6 4 5 5 6 7 8 8 9 8 8 8 9 9 10 10 9 12 13 6 6 9 7 5 5
4 4 4 4 4 4 5 4 4 4 3 3 3 1 0 4 4 2 2 2 2 2 4 4 5 4 4 6 6 6 8 7 8 10 7 10 8 9 9 8 6 4 5 4 4 5 5